Probability
0 0 0 0 1 2 3 2 1 1 4 8 14 21 32 38 38 40 43 42 40 36 32 30 31 34 34 31 31 30 27 25 22 18 16 15 14 11 7 6 6 6 6 6
0 0 0 0 1 2 2 3 3 5 8 11 15 25 36 41 40 41 45 47 46 43 38 34 33 35 35 34 34 33 29 25 22 19 16 13 10 7 5 4 5 6 6 6
0 0 0 0 1 2 2 3 6 10 14 16 20 29 40 45 45 45 48 52 54 53 49 43 41 42 42 40 39 37 32 27 23 19 15 11 7 4 2 2 3 4 4 4
0 0 0 1 2 3 6 9 13 18 21 24 30 38 45 48 50 50 50 53 57 60 59 55 53 54 52 47 44 40 32 27 25 21 15 10 5 3 3 2 1 1 2 2
0 0 0 2 5 9 13 18 22 26 30 36 43 49 50 52 56 56 54 56 58 62 66 65 62 61 57 50 45 39 32 26 24 21 14 8 6 4 4 3 1 1 2 2
0 0 2 6 10 13 17 22 25 29 35 42 50 53 53 56 61 63 63 61 61 64 67 66 63 60 56 48 40 34 28 23 21 17 12 8 7 6 5 4 3 3 3 3
0 1 4 12 16 15 16 21 27 33 36 41 47 50 53 58 64 68 69 67 66 65 63 59 57 56 53 44 33 26 22 19 16 13 10 8 8 7 5 4 3 3 3 3
1 2 7 16 20 17 18 26 35 41 41 42 46 50 53 57 62 66 69 70 69 66 58 52 52 53 49 39 28 22 20 17 15 12 10 8 7 6 5 3 3 4 3 3
5 7 11 18 22 22 26 35 42 47 50 50 52 54 54 56 58 61 63 65 67 63 55 49 48 47 42 33 26 23 21 17 14 11 9 7 6 5 3 2 3 4 3 2
14 15 17 21 24 26 31 39 45 51 56 59 58 55 54 55 56 58 57 58 60 59 54 48 44 40 36 31 28 25 22 18 13 11 8 6 5 3 1 1 1 2 1 1
20 20 20 20 22 24 29 35 42 49 56 58 56 54 52 53 56 58 56 55 56 54 50 45 40 35 32 31 29 25 22 19 15 11 8 6 4 1 0 0 0 0 0 0
19 19 18 16 17 20 24 28 33 40 46 48 48 50 51 50 53 55 54 53 53 50 45 40 37 32 28 29 29 25 22 19 16 12 8 5 3 1 1 0 0 0 0 0
15 14 13 14 15 18 21 25 27 31 36 39 40 44 47 46 46 48 48 48 47 45 41 38 35 30 26 25 26 26 24 21 17 12 8 4 3 3 2 1 0 0 0 0
10 10 11 13 15 17 20 22 24 26 30 32 33 37 41 41 40 41 43 42 42 40 38 35 32 28 25 24 25 26 26 22 16 11 6 4 3 3 3 2 1 0 0 0
8 9 10 11 13 16 17 18 20 22 25 26 26 29 34 36 35 35 37 37 36 35 34 32 29 26 24 24 25 26 26 22 15 9 6 4 3 3 2 2 1 0 0 0
7 8 10 11 11 13 14 15 17 17 18 18 18 21 26 30 31 30 31 32 31 30 28 27 26 23 20 21 23 23 23 19 14 9 6 4 3 2 1 1 0 0 0 0
8 9 10 11 11 11 11 13 14 14 12 12 13 16 19 24 27 27 27 27 27 26 25 24 23 20 17 17 19 20 19 16 12 10 8 5 3 3 2 1 1 0 0 0
8 9 10 10 11 9 8 9 11 11 10 11 13 15 17 20 23 24 24 24 25 25 25 24 22 19 16 14 15 15 15 12 10 8 7 4 3 3 3 3 2 1 1 0
6 7 8 8 9 8 7 7 7 8 9 10 13 15 16 17 18 20 21 22 23 24 23 22 20 18 15 13 10 10 11 10 8 6 4 3 2 2 3 3 3 3 2 1
4 4 4 4 5 6 6 6 6 7 8 9 10 12 14 14 14 14 16 17 18 18 17 17 17 15 14 11 9 9 10 8 6 5 3 2 1 1 1 2 2 3 3 3
1 1 1 1 2 3 3 4 5 6 6 6 7 8 9 9 9 9 9 11 11 11 11 11 11 11 11 11 9 11 11 8 6 4 3 3 1 0 0 1 1 1 2 2
0 0 0 1 2 1 1 2 4 4 4 4 4 4 5 5 5 5 5 5 7 7 7 8 8 8 8 9 10 11 10 9 6 4 3 3 2 1 0 0 0 0 1 1
0 0 1 2 2 1 0 1 2 2 2 2 2 2 2 2 2 2 2 3 4 5 6 6 6 6 6 7 9 10 8 7 6 4 3 3 3 2 1 0 0 0 0 0
0 0 1 2 1 0 0 0 1 1 1 1 1 1 1 1 1 1 1 1 1 3 4 4 5 4 4 5 7 8 6 5 4 4 3 3 3 2 1 0 0 0 0 0
0 0 1 1 0 0 0 0 0 0 0 0 0 0 0 0 0 0 0 0 0 1 1 1 2 2 2 3 4 5 4 3 3 3 3 3 3 2 1 0 0 0 0 0
0 0 0 0 0 0 0 0 0 0 0 0 0 0 0 0 0 0 0 0 0 0 0 0 0 1 2 3 3 3 3 3 2 3 3 3 2 1 0 0 0 0 0 0
0 0 0 0 0 0 0 0 0 0 0 0 0 0 0 0 0 0 0 0 0 0 0 0 0 0 1 3 3 3 3 3 3 3 3 2 1 0 0 0 0 0 0 0
Wind_Speed
4 4 1 2 4 3 3 7 8 8 8 9 10 11 11 10 10 10 10 11 12 12 11 10 10 9 9 8 8 8 8 7 6 5 5 4 5 5 5 5 6 5 5 5
3 2 2 3 5 4 3 4 4 5 5 7 7 6 8 10 12 11 11 11 11 11 11 11 11 10 10 9 9 9 8 7 6 6 6 5 5 5 5 5 5 5 5 5
2 4 3 4 5 3 2 3 5 6 7 4 6 8 11 11 11 12 12 11 11 11 11 11 11 11 11 10 9 9 8 7 7 7 7 6 6 6 6 5 5 5 4 5
1 2 4 9 4 1 1 1 2 3 4 6 8 9 8 8 10 10 10 11 11 10 9 8 9 9 9 9 9 9 8 8 7 7 7 6 6 6 5 4 4 4 4 4
3 2 5 6 3 1 1 3 2 3 4 4 6 7 2 3 7 9 10 9 9 9 10 9 11 11 11 9 9 9 8 8 8 8 8 7 6 6 5 5 4 3 3 4
3 3 6 6 6 3 4 2 5 1 4 5 6 5 4 4 4 6 6 7 7 8 8 10 11 12 12 11 10 10 9 9 8 8 8 7 6 5 4 5 4 4 3 3
4 4 6 5 7 3 3 6 5 0 3 4 4 6 5 4 4 6 6 7 8 9 9 10 11 12 12 11 10 9 9 8 8 8 7 7 6 5 5 5 5 4 3 2
3 3 6 5 3 2 5 4 2 1 2 3 4 3 5 5 5 6 7 7 8 8 8 8 11 11 10 9 8 8 9 9 8 7 7 6 6 5 5 5 5 4 3 2
6 6 6 3 1 2 3 2 1 1 2 5 5 5 5 6 6 6 7 7 7 8 8 7 9 10 10 8 9 9 9 9 8 7 6 6 7 6 5 4 4 3 3 2
0 2 2 1 1 2 2 1 0 2 3 5 5 5 5 6 6 6 6 6 6 8 8 7 7 8 9 9 10 10 10 8 7 7 6 5 4 5 5 4 4 4 4 3
0 2 3 3 2 2 3 4 4 4 4 4 5 5 5 5 5 6 6 5 6 7 8 8 8 7 8 10 11 10 9 8 7 6 6 5 4 2 3 3 4 6 5 5
4 5 3 3 3 2 3 3 4 6 6 4 4 4 5 5 5 5 6 5 6 7 7 7 7 7 7 9 11 11 9 7 6 6 5 5 5 3 4 2 2 5 6 6
5 4 3 2 2 2 3 2 3 5 5 5 4 4 4 4 4 4 4 5 6 8 7 7 7 7 7 8 10 10 9 8 6 6 6 6 5 5 3 2 3 2 5 7
3 3 2 0 1 2 3 3 4 5 4 4 4 5 4 4 4 4 4 4 4 6 7 7 7 7 7 8 8 8 8 8 7 6 6 6 6 5 5 5 3 1 1 4
1 3 3 2 1 1 2 3 4 4 4 4 4 4 4 4 3 3 3 4 5 5 6 6 6 6 6 7 8 8 7 6 6 6 6 6 5 5 5 5 4 3 2 1
2 2 2 2 0 1 1 2 3 2 3 3 3 3 3 3 2 2 2 3 5 6 6 6 6 6 6 7 7 6 6 9 8 6 6 6 5 5 5 5 5 4 4 4
3 2 2 1 1 1 1 2 2 2 2 3 2 2 3 3 3 2 1 1 3 4 5 5 5 6 7 7 7 5 5 7 9 6 6 6 6 6 6 5 5 5 5 6
3 3 3 3 3 2 1 2 2 2 2 2 3 4 3 3 2 1 1 1 2 2 2 3 4 4 6 6 6 5 4 4 5 5 5 6 6 6 6 6 6 6 4 4
2 3 2 2 2 3 2 2 1 1 1 2 3 3 2 2 2 2 1 2 3 2 2 3 5 5 5 5 5 4 4 4 4 4 5 6 7 6 6 6 6 6 5 5
2 2 2 2 2 2 2 1 1 1 1 2 3 2 1 1 1 1 2 2 2 3 3 4 4 4 5 5 6 4 5 5 5 5 5 5 6 6 6 6 6 6 6 6
1 2 2 2 2 1 1 2 2 1 1 2 2 2 2 1 2 1 1 1 2 1 2 4 3 3 4 5 6 5 5 5 5 5 5 5 5 5 6 6 6 6 6 6
1 1 2 2 2 1 0 1 1 1 1 1 1 1 2 1 1 1 2 2 2 2 1 2 2 3 4 5 4 4 4 5 5 5 5 5 5 5 5 6 6 6 6 6
1 2 2 2 2 1 2 2 1 1 1 0 1 1 2 2 2 2 2 2 1 2 1 2 2 3 4 4 3 4 4 4 4 5 5 5 5 5 5 6 5 5 5 5
1 1 1 1 2 2 1 1 0 0 1 1 2 2 2 1 1 1 2 2 2 2 1 2 3 3 3 2 3 3 4 4 4 4 5 5 4 4 5 5 5 5 5 6
0 0 1 2 1 1 1 1 0 1 1 1 1 1 0 1 2 1 1 1 2 2 1 2 3 3 2 2 2 3 3 3 3 3 3 3 4 4 4 4 4 5 5 5
0 0 1 1 1 1 1 0 0 0 0 0 1 1 1 0 1 1 1 1 2 2 1 1 1 2 1 1 1 2 2 2 3 3 3 3 4 5 4 4 5 4 4 4
1 1 1 1 1 0 0 1 1 0 0 1 1 1 1 0 0 1 0 0 1 1 1 1 1 1 1 1 1 2 2 2 2 2 3 3 3 4 4 5 5 4 4 4
Wind_Direction
210 216 215 253 264 242 185 182 182 211 197 209 197 180 171 161 153 153 158 164 168 168 169 169 167 163 160 160 158 153 148 148 150 146 136 123 112 106 100 96 96 89 83 72
333 338 2 302 279 252 221 193 190 178 218 220 188 155 146 152 154 159 165 167 169 167 167 168 169 165 161 162 158 151 151 152 147 137 131 124 114 107 100 94 90 85 81 78
297 321 22 283 255 241 228 210 172 188 219 180 155 170 169 164 162 165 167 167 169 170 170 171 173 166 163 161 153 150 151 149 146 143 140 136 128 115 110 104 99 91 82 78
129 44 230 245 258 160 167 267 184 175 186 170 171 176 172 165 164 166 168 170 171 169 164 164 161 154 150 148 148 149 150 150 150 147 143 136 128 125 120 114 109 104 94 84
121 177 267 292 321 30 109 326 336 147 149 142 125 100 98 184 170 173 175 173 169 166 155 154 154 150 145 143 146 148 152 154 153 147 144 140 136 135 128 121 113 112 110 97
136 166 223 256 293 297 100 323 318 84 152 146 114 127 217 207 167 152 152 158 153 148 141 146 153 149 147 152 155 160 161 157 151 147 147 147 145 139 131 129 126 122 109 106
166 204 249 270 302 25 120 232 284 340 159 159 160 182 189 167 150 140 137 143 145 144 148 153 151 148 153 159 166 164 155 147 145 148 149 147 141 137 138 136 128 127 121 107
154 188 251 305 4 128 206 228 260 108 115 130 145 134 125 132 136 133 129 132 138 139 144 148 147 151 156 165 161 150 146 145 148 149 152 147 139 138 142 143 137 138 129 110
180 208 239 281 192 210 176 165 203 128 126 128 125 122 126 133 146 142 139 137 137 137 138 145 152 156 158 161 148 145 145 149 151 149 143 145 147 151 153 154 153 159 153 152
104 257 268 324 44 32 49 87 58 106 117 106 113 125 130 139 145 138 134 133 134 138 141 149 157 156 158 152 149 147 148 150 150 148 144 144 148 154 158 164 167 169 166 167
177 272 1 355 14 42 34 33 53 58 86 106 113 115 120 128 136 137 132 139 146 152 153 159 158 153 152 150 148 147 149 150 152 151 151 146 134 130 162 180 188 179 180 173
215 228 184 243 292 22 47 44 71 76 68 70 92 105 112 118 121 128 135 139 143 150 152 154 151 152 154 154 154 152 152 155 157 156 152 148 139 110 57 85 148 183 178 170
211 222 183 213 302 31 58 56 76 91 96 82 65 82 94 106 117 123 127 141 158 159 155 154 154 156 160 160 160 161 162 163 163 163 160 161 159 156 148 55 52 108 173 174
191 121 83 21 293 14 57 63 76 82 79 83 83 79 78 91 107 118 139 154 161 154 151 153 157 164 168 163 162 164 163 168 169 169 168 170 171 171 168 167 168 190 213 184
187 153 167 164 5 21 60 79 80 74 72 66 71 80 87 92 114 136 151 153 148 149 155 156 162 170 167 164 166 166 165 169 172 170 170 171 170 168 171 174 171 170 168 186
149 97 100 96 40 300 49 89 105 96 92 92 84 83 91 101 105 102 129 155 159 169 175 172 176 177 166 167 169 171 176 174 170 172 172 171 172 173 178 178 176 178 185 182
133 131 124 142 195 146 166 169 155 136 117 105 111 112 98 95 92 95 104 187 172 171 172 173 182 175 167 169 171 173 176 177 176 176 180 180 179 182 183 182 185 190 196 190
154 157 155 162 156 138 133 119 116 120 127 125 111 107 109 118 130 153 207 165 127 127 167 172 175 173 172 173 173 171 170 172 180 186 184 184 185 186 184 186 190 193 196 189
128 119 118 118 142 145 137 119 130 140 141 128 117 128 141 156 161 172 176 168 159 181 220 188 170 175 178 180 171 169 173 176 179 187 185 184 185 188 189 190 193 196 191 182
69 93 96 93 112 130 130 120 119 114 130 132 127 117 123 170 154 160 155 173 192 196 193 182 169 176 184 184 177 181 187 187 189 190 186 185 188 192 195 195 195 193 191 191
60 75 86 94 103 111 126 150 150 148 124 112 142 167 166 165 153 157 159 237 276 222 177 177 176 181 189 189 185 188 193 194 195 192 191 192 192 194 196 197 196 193 192 193
67 91 98 101 108 92 34 91 136 143 118 95 96 146 149 173 171 170 214 222 235 221 183 180 191 195 192 189 189 191 194 197 201 198 194 195 194 195 196 195 194 192 190 189
62 94 101 107 115 97 44 39 61 120 138 179 225 221 211 213 195 181 231 243 198 188 186 198 198 191 193 195 194 195 198 203 206 203 200 198 198 195 193 192 190 185 183 181
43 93 115 114 98 94 85 307 313 276 262 267 258 236 208 197 233 223 197 188 179 172 186 204 202 202 206 211 205 206 208 207 204 201 197 194 192 190 186 182 181 179 178 174
34 114 119 109 109 165 206 211 69 22 1 334 312 299 257 189 190 203 175 170 172 160 181 219 210 205 204 212 207 207 213 210 197 185 179 175 174 174 175 174 172 168 169 169
175 164 179 175 176 185 213 162 150 258 67 22 339 339 343 348 152 154 150 167 170 177 184 202 198 196 192 192 200 195 187 172 169 165 167 168 163 161 159 160 157 157 158 157
59 57 56 38 6 329 120 120 129 265 226 180 269 300 299 326 17 33 77 118 160 177 176 178 156 140 138 128 99 97 99 101 109 119 125 132 139 142 144 144 142 139 140 142